Time,TemperatureF,DewpointF,PressureIn,WindDirection,WindDirectionDegrees,WindSpeedMPH,WindSpeedGustMPH,Humidity,HourlyPrecipIn,Conditions,Clouds,dailyrainin,SolarRadiationWatts/m^2,SoftwareType,DateUTC
2013-07-12 00:02:00,87.0,57.0,-100.00,SSE,149,7.0,11.0,36,0.00,,,0.00,0.000000,,2013-07-12 05:02:00,
2013-07-12 00:32:00,85.0,57.0,-100.00,SE,146,6.0,10.0,39,0.00,,,0.00,0.000000,,2013-07-12 05:32:00,
2013-07-12 00:43:00,85.0,57.0,-100.00,SE,146,6.0,10.0,39,0.00,,,0.00,0.000000,,2013-07-12 05:43:00,
2013-07-12 00:53:00,85.0,57.0,-100.00,SE,146,6.0,10.0,39,0.00,,,0.00,0.000000,,2013-07-12 05:53:00,
2013-07-12 01:01:00,85.0,57.0,-100.00,SE,146,6.0,10.0,39,0.00,,,0.00,0.000000,,2013-07-12 06:01:00,
2013-07-12 01:33:00,83.0,59.0,-100.00,SSE,148,7.0,10.0,44,0.00,,,0.00,0.000000,,2013-07-12 06:33:00,
2013-07-12 01:42:00,83.0,59.0,-100.00,SSE,148,7.0,10.0,44,0.00,,,0.00,0.000000,,2013-07-12 06:42:00,
2013-07-12 01:52:00,83.0,59.0,-100.00,SSE,148,7.0,10.0,44,0.00,,,0.00,0.000000,,2013-07-12 06:52:00,
2013-07-12 02:02:00,83.0,59.0,-100.00,SSE,148,7.0,10.0,44,0.00,,,0.00,0.000000,,2013-07-12 07:02:00,
2013-07-12 02:33:00,82.0,59.0,-100.00,ESE,119,3.0,8.0,46,0.00,,,0.00,0.000000,,2013-07-12 07:33:00,
2013-07-12 02:43:00,82.0,59.0,-100.00,ESE,119,3.0,8.0,46,0.00,,,0.00,0.000000,,2013-07-12 07:43:00,
2013-07-12 02:52:00,82.0,59.0,-100.00,ESE,119,3.0,8.0,46,0.00,,,0.00,0.000000,,2013-07-12 07:52:00,
2013-07-12 03:01:00,82.0,59.0,-100.00,ESE,119,3.0,8.0,46,0.00,,,0.00,0.000000,,2013-07-12 08:01:00,
2013-07-12 03:32:00,80.0,59.0,-100.00,ESE,121,3.0,4.0,48,0.00,,,0.00,0.000000,,2013-07-12 08:32:00,
2013-07-12 03:42:00,80.0,59.0,-100.00,ESE,121,3.0,4.0,48,0.00,,,0.00,0.000000,,2013-07-12 08:42:00,
2013-07-12 03:53:00,80.0,59.0,-100.00,ESE,121,3.0,4.0,48,0.00,,,0.00,0.000000,,2013-07-12 08:53:00,
2013-07-12 04:02:00,80.0,59.0,-100.00,ESE,121,3.0,4.0,48,0.00,,,0.00,0.000000,,2013-07-12 09:02:00,
2013-07-12 04:32:00,79.0,59.0,-100.00,SE,127,5.0,6.0,51,0.00,,,0.00,0.000000,,2013-07-12 09:32:00,
2013-07-12 04:43:00,79.0,59.0,-100.00,SE,127,5.0,6.0,51,0.00,,,0.00,0.000000,,2013-07-12 09:43:00,
2013-07-12 04:52:00,79.0,59.0,-100.00,SE,127,5.0,6.0,51,0.00,,,0.00,0.000000,,2013-07-12 09:52:00,
2013-07-12 05:01:00,79.0,59.0,-100.00,SE,127,5.0,6.0,51,0.00,,,0.00,0.000000,,2013-07-12 10:01:00,
2013-07-12 05:33:00,78.0,60.0,-100.00,SE,129,4.0,6.0,54,0.00,,,0.00,0.000000,,2013-07-12 10:33:00,
2013-07-12 05:43:00,78.0,60.0,-100.00,SE,129,4.0,6.0,54,0.00,,,0.00,0.000000,,2013-07-12 10:43:00,
2013-07-12 05:52:00,78.0,60.0,-100.00,SE,129,4.0,6.0,54,0.00,,,0.00,0.000000,,2013-07-12 10:52:00,
2013-07-12 06:02:00,78.0,60.0,-100.00,SE,129,4.0,6.0,54,0.00,,,0.00,0.000000,,2013-07-12 11:02:00,
2013-07-12 06:32:00,77.0,61.0,-100.00,SE,139,4.0,7.0,58,0.00,,,0.00,0.000000,,2013-07-12 11:32:00,
2013-07-12 06:43:00,77.0,61.0,-100.00,SE,139,4.0,7.0,58,0.00,,,0.00,0.000000,,2013-07-12 11:43:00,
2013-07-12 06:53:00,77.0,61.0,-100.00,SE,139,4.0,7.0,58,0.00,,,0.00,0.000000,,2013-07-12 11:53:00,
2013-07-12 07:01:00,77.0,61.0,-100.00,SE,139,4.0,7.0,58,0.00,,,0.00,0.000000,,2013-07-12 12:01:00,
2013-07-12 07:32:00,76.0,62.0,-100.00,SE,138,2.0,4.0,62,0.00,,,0.00,9.000000,,2013-07-12 12:32:00,
2013-07-12 07:43:00,76.0,62.0,-100.00,SE,138,2.0,4.0,62,0.00,,,0.00,9.000000,,2013-07-12 12:43:00,
2013-07-12 07:52:00,76.0,62.0,-100.00,SE,138,2.0,4.0,62,0.00,,,0.00,9.000000,,2013-07-12 12:52:00,
2013-07-12 08:01:00,76.0,62.0,-100.00,SE,138,2.0,4.0,62,0.00,,,0.00,9.000000,,2013-07-12 13:01:00,
2013-07-12 08:32:00,81.0,65.0,-100.00,SSW,197,0.0,2.0,59,0.00,,,0.00,125.000000,,2013-07-12 13:32:00,
2013-07-12 08:43:00,81.0,65.0,-100.00,SSW,197,0.0,2.0,59,0.00,,,0.00,125.000000,,2013-07-12 13:43:00,
2013-07-12 08:53:00,81.0,65.0,-100.00,SSW,197,0.0,2.0,59,0.00,,,0.00,125.000000,,2013-07-12 13:53:00,
2013-07-12 09:02:00,81.0,65.0,-100.00,SSW,197,0.0,2.0,59,0.00,,,0.00,125.000000,,2013-07-12 14:02:00,
2013-07-12 09:32:00,84.0,67.0,-100.00,SW,215,6.0,9.0,57,0.00,,,0.00,351.000000,,2013-07-12 14:32:00,
2013-07-12 09:44:00,84.0,67.0,-100.00,SW,215,6.0,9.0,57,0.00,,,0.00,351.000000,,2013-07-12 14:44:00,
2013-07-12 09:53:00,84.0,67.0,-100.00,SW,215,6.0,9.0,57,0.00,,,0.00,351.000000,,2013-07-12 14:53:00,
2013-07-12 10:01:00,84.0,67.0,-100.00,SW,215,6.0,9.0,57,0.00,,,0.00,351.000000,,2013-07-12 15:01:00,
2013-07-12 10:33:00,89.0,68.0,-100.00,SSW,207,5.0,11.0,50,0.00,,,0.00,561.000000,,2013-07-12 15:33:00,
2013-07-12 10:43:00,89.0,68.0,-100.00,SSW,207,5.0,11.0,50,0.00,,,0.00,561.000000,,2013-07-12 15:43:00,
2013-07-12 10:53:00,89.0,68.0,-100.00,SSW,207,5.0,11.0,50,0.00,,,0.00,561.000000,,2013-07-12 15:53:00,
2013-07-12 11:01:00,89.0,68.0,-100.00,SSW,207,5.0,11.0,50,0.00,,,0.00,561.000000,,2013-07-12 16:01:00,
2013-07-12 11:32:00,92.0,66.0,-100.00,SE,133,6.0,12.0,42,0.00,,,0.00,761.000000,,2013-07-12 16:32:00,
2013-07-12 11:43:00,92.0,66.0,-100.00,SE,133,6.0,12.0,42,0.00,,,0.00,761.000000,,2013-07-12 16:43:00,
2013-07-12 11:58:00,92.0,66.0,-100.00,SE,133,6.0,12.0,42,0.00,,,0.00,761.000000,,2013-07-12 16:58:00,
2013-07-12 12:05:00,92.0,66.0,-100.00,SE,133,6.0,12.0,42,0.00,,,0.00,761.000000,,2013-07-12 17:05:00,
2013-07-12 12:40:00,95.0,62.0,-100.00,East,84,6.0,14.0,34,0.00,,,0.00,891.000000,,2013-07-12 17:40:00,
2013-07-12 12:47:00,95.0,62.0,-100.00,East,84,6.0,14.0,34,0.00,,,0.00,891.000000,,2013-07-12 17:47:00,
2013-07-12 12:55:00,95.0,62.0,-100.00,East,84,6.0,14.0,34,0.00,,,0.00,891.000000,,2013-07-12 17:55:00,
2013-07-12 13:05:00,95.0,62.0,-100.00,East,84,6.0,14.0,34,0.00,,,0.00,891.000000,,2013-07-12 18:05:00,
2013-07-12 13:35:00,97.0,57.0,-100.00,SE,132,9.0,15.0,27,0.00,,,0.00,1025.000000,,2013-07-12 18:35:00,
2013-07-12 13:50:00,97.0,57.0,-100.00,SE,132,9.0,15.0,27,0.00,,,0.00,1025.000000,,2013-07-12 18:50:00,
2013-07-12 13:57:00,97.0,57.0,-100.00,SE,132,9.0,15.0,27,0.00,,,0.00,1025.000000,,2013-07-12 18:57:00,
2013-07-12 14:04:00,97.0,57.0,-100.00,SE,132,9.0,15.0,27,0.00,,,0.00,1025.000000,,2013-07-12 19:04:00,
2013-07-12 14:35:00,99.0,53.0,-100.00,SSE,155,12.0,19.0,22,0.00,,,0.00,1058.000000,,2013-07-12 19:35:00,
2013-07-12 14:47:00,99.0,53.0,-100.00,SSE,155,12.0,19.0,22,0.00,,,0.00,1058.000000,,2013-07-12 19:47:00,
2013-07-12 14:58:00,99.0,53.0,-100.00,SSE,155,12.0,19.0,22,0.00,,,0.00,1058.000000,,2013-07-12 19:58:00,
2013-07-12 15:35:00,101.0,51.0,-100.00,SSE,156,11.0,23.0,19,0.00,,,0.00,1037.000000,,2013-07-12 20:35:00,
2013-07-12 15:47:00,101.0,51.0,-100.00,SSE,156,11.0,23.0,19,0.00,,,0.00,1037.000000,,2013-07-12 20:47:00,
2013-07-12 15:55:00,101.0,51.0,-100.00,SSE,156,11.0,23.0,19,0.00,,,0.00,1037.000000,,2013-07-12 20:55:00,
2013-07-12 16:02:00,101.0,51.0,-100.00,SSE,156,11.0,23.0,19,0.00,,,0.00,1037.000000,,2013-07-12 21:02:00,
2013-07-12 16:36:00,101.0,52.0,-100.00,ESE,112,10.0,20.0,20,0.00,,,0.00,818.000000,,2013-07-12 21:36:00,
2013-07-12 16:48:00,101.0,52.0,-100.00,ESE,112,10.0,20.0,20,0.00,,,0.00,818.000000,,2013-07-12 21:48:00,
2013-07-12 16:58:00,101.0,52.0,-100.00,ESE,112,10.0,20.0,20,0.00,,,0.00,818.000000,,2013-07-12 21:58:00,
2013-07-12 17:34:00,101.0,51.0,-100.00,SE,139,11.0,19.0,19,0.00,,,0.00,718.000000,,2013-07-12 22:34:00,
2013-07-12 17:46:00,101.0,51.0,-100.00,SE,139,11.0,19.0,19,0.00,,,0.00,718.000000,,2013-07-12 22:46:00,
2013-07-12 17:56:00,101.0,51.0,-100.00,SE,139,11.0,19.0,19,0.00,,,0.00,718.000000,,2013-07-12 22:56:00,
2013-07-12 18:03:00,101.0,51.0,-100.00,SE,139,11.0,19.0,19,0.00,,,0.00,718.000000,,2013-07-12 23:03:00,
2013-07-12 18:36:00,101.0,50.0,-100.00,SSE,148,10.0,20.0,18,0.00,,,0.00,601.000000,,2013-07-12 23:36:00,
2013-07-12 18:45:00,101.0,50.0,-100.00,SSE,148,10.0,20.0,18,0.00,,,0.00,601.000000,,2013-07-12 23:45:00,
2013-07-12 18:58:00,101.0,50.0,-100.00,SSE,148,10.0,20.0,18,0.00,,,0.00,601.000000,,2013-07-12 23:58:00,
2013-07-12 19:04:00,101.0,50.0,-100.00,SSE,148,10.0,20.0,18,0.00,,,0.00,601.000000,,2013-07-13 00:04:00,
2013-07-12 19:49:00,100.0,50.0,-100.00,ESE,117,11.0,20.0,19,0.00,,,0.00,455.000000,,2013-07-13 00:49:00,
2013-07-12 19:56:00,100.0,50.0,-100.00,ESE,117,11.0,20.0,19,0.00,,,0.00,455.000000,,2013-07-13 00:56:00,
2013-07-12 20:02:00,100.0,50.0,-100.00,ESE,117,11.0,20.0,19,0.00,,,0.00,455.000000,,2013-07-13 01:02:00,
2013-07-12 20:40:00,97.0,54.0,-100.00,ESE,119,11.0,19.0,24,0.00,,,0.00,104.000000,,2013-07-13 01:40:00,
2013-07-12 20:49:00,97.0,54.0,-100.00,ESE,119,11.0,19.0,24,0.00,,,0.00,104.000000,,2013-07-13 01:49:00,
2013-07-12 20:56:00,97.0,54.0,-100.00,ESE,119,11.0,19.0,24,0.00,,,0.00,104.000000,,2013-07-13 01:56:00,
2013-07-12 21:04:00,97.0,54.0,-100.00,ESE,119,11.0,19.0,24,0.00,,,0.00,104.000000,,2013-07-13 02:04:00,
2013-07-12 21:38:00,93.0,53.0,-100.00,ESE,105,8.0,15.0,26,0.00,,,0.00,19.000000,,2013-07-13 02:38:00,
2013-07-12 21:48:00,93.0,53.0,-100.00,ESE,105,8.0,15.0,26,0.00,,,0.00,19.000000,,2013-07-13 02:48:00,
2013-07-12 21:55:00,93.0,53.0,-100.00,ESE,105,8.0,15.0,26,0.00,,,0.00,19.000000,,2013-07-13 02:55:00,
2013-07-12 22:04:00,93.0,53.0,-100.00,ESE,105,8.0,15.0,26,0.00,,,0.00,19.000000,,2013-07-13 03:04:00,
2013-07-12 23:32:00,86.0,54.0,-100.00,SE,139,3.0,7.0,34,-99.99,,,0.00,0.000000,,2013-07-13 04:32:00,
2013-07-12 23:44:00,86.0,54.0,-100.00,SE,139,3.0,7.0,34,-99.99,,,0.00,0.000000,,2013-07-13 04:44:00,
2013-07-12 23:52:00,86.0,54.0,-100.00,SE,139,3.0,7.0,34,-99.99,,,0.00,0.000000,,2013-07-13 04:52:00,